Temp
25 25 25 25 25 25 25 25 25 25 25 24 24 24 24 24 24 24 24 24 24 24 25 25 25 25 25 25 25 25 25 25 25 25 25 25 26 26 26 26 26 26
25 25 25 25 25 25 25 25 25 25 25 25 25 25 24 24 24 24 24 24 24 24 24 25 25 25 25 25 25 25 25 25 25 25 25 25 25 25 26 26 26 26
25 25 25 25 25 25 25 25 25 25 25 25 25 25 24 24 24 24 24 24 25 25 24 24 24 25 25 25 25 25 25 25 25 25 25 25 25 25 25 26 26 26
24 25 25 25 25 25 25 25 25 25 25 25 25 25 24 24 24 24 24 24 25 25 25 24 24 24 25 25 25 25 25 25 25 25 25 25 25 25 25 25 26 26
24 24 25 25 25 25 25 25 25 25 25 25 25 25 24 24 24 24 25 25 25 25 25 25 25 24 24 24 24 24 25 25 25 25 25 25 25 25 25 25 25 26
24 24 25 25 25 25 25 25 25 25 25 25 25 25 24 24 24 24 25 25 25 25 25 25 24 24 24 24 24 24 24 25 25 25 25 25 25 25 25 25 25 25
24 24 24 25 25 25 25 25 25 25 25 25 25 25 25 24 24 25 25 25 25 25 25 25 25 24 24 24 24 24 24 24 24 25 25 25 25 25 25 25 25 25
24 24 24 24 24 25 25 25 25 25 25 25 24 24 23 22 22 23 23 24 25 25 25 25 25 25 24 24 24 24 24 24 24 24 24 24 25 25 25 25 25 25
24 24 24 24 24 24 25 25 25 25 24 23 23 23 22 22 23 23 23 23 24 25 25 25 25 25 24 24 24 24 24 24 24 25 25 25 25 25 25 25 25 25
24 24 24 24 24 24 24 25 25 24 24 23 24 24 24 24 25 25 24 24 24 24 25 25 25 25 24 24 24 24 24 25 25 25 25 25 25 25 25 25 25 25
24 24 24 24 24 24 24 25 25 24 25 25 25 25 24 25 25 24 24 25 24 24 24 25 25 25 25 25 25 25 25 25 25 25 25 25 25 25 25 25 25 25
24 24 24 24 24 24 25 25 25 25 25 25 25 25 25 25 25 25 24 24 24 24 24 25 25 25 25 25 25 25 25 25 25 25 25 25 25 25 25 25 25 25
24 24 24 24 24 25 25 25 25 25 25 25 25 25 25 25 25 25 25 25 25 25 25 25 25 25 25 25 25 25 25 25 25 25 25 24 24 25 25 25 25 25
25 25 25 25 25 25 25 25 25 25 25 25 25 25 25 25 25 25 25 25 25 25 25 25 25 25 25 25 25 25 25 25 25 25 25 24 24 25 25 25 25 25
25 25 25 25 25 25 25 25 25 25 25 25 26 25 25 25 25 25 25 25 25 25 25 25 25 25 25 25 25 25 25 25 25 25 25 24 24 25 25 25 25 25
25 25 25 25 25 25 25 25 25 25 25 26 26 25 25 25 25 25 25 25 25 25 25 25 25 25 25 25 25 25 25 25 25 25 25 24 24 25 25 25 25 25
24 25 25 25 25 25 25 25 25 25 25 26 26 26 25 25 25 25 25 25 25 25 25 25 25 25 25 25 25 25 25 25 25 25 25 25 25 25 25 25 25 25
24 24 25 25 25 25 25 25 25 25 25 26 26 26 26 25 25 25 25 25 25 25 25 25 25 25 25 25 25 25 25 25 25 25 25 25 25 25 25 25 25 25
24 24 24 24 25 25 25 25 25 25 26 26 26 26 26 26 25 25 25 25 25 25 25 25 25 25 25 25 25 25 25 25 25 25 25 25 25 25 25 25 25 25
23 24 24 24 25 25 25 25 24 25 25 26 26 25 25 25 25 25 25 25 25 25 24 24 24 25 25 25 24 25 25 25 25 25 25 25 25 25 25 25 25 25
23 22 22 22 23 24 24 24 23 23 23 24 24 25 24 25 25 25 25 25 24 24 24 24 24 24 24 24 24 24 24 25 25 25 25 25 24 25 25 25 25 24
22 22 22 22 22 23 24 24 23 23 22 21 22 23 24 24 24 24 24 24 23 23 23 23 23 23 23 23 24 24 24 24 24 24 24 24 24 24 24 24 24 24
22 22 22 21 21 21 23 23 24 24 23 21 20 21 22 23 23 23 23 23 22 22 22 22 22 22 23 23 23 23 23 23 23 23 23 23 23 23 23 23 23 22
22 21 20 20 20 20 21 22 22 22 22 22 21 20 20 21 22 22 21 21 21 21 21 21 22 22 22 22 22 22 22 22 22 22 22 22 22 22 22 21 21 21
21 20 20 20 20 20 20 21 21 21 21 21 21 21 20 20 20 21 20 20 20 20 20 20 21 21 21 21 21 22 22 22 22 21 21 21 20 20 20 20 20 20
20 20 20 20 20 20 20 20 20 20 20 20 20 20 20 19 20 20 20 19 19 19 19 20 20 20 20 20 21 21 21 21 21 20 19 19 18 18 19 19 19 19
Height
844 845 846 847 848 849 850 851 852 853 854 855 856 856 857 858 859 859 860 861 862 863 864 865 865 866 867 867 868 868 869 869 869 870 870 870 871 871 871 871 870 870
843 844 846 847 848 849 850 851 852 853 854 855 856 856 857 858 859 859 860 861 862 863 864 865 866 867 867 868 868 868 869 869 869 870 870 870 870 871 871 871 870 870
843 844 845 846 847 848 849 850 852 852 854 855 855 857 857 858 859 860 861 861 862 863 864 865 866 866 867 867 868 868 869 869 869 869 870 870 870 870 870 871 870 870
842 843 844 845 846 848 849 850 851 852 853 854 855 856 857 858 859 859 860 861 862 863 863 864 865 866 867 867 867 868 868 868 869 869 870 870 870 870 870 870 870 870
841 842 843 844 845 847 848 849 850 851 852 854 855 856 857 858 859 859 860 861 861 862 863 863 864 865 866 866 866 867 867 868 868 869 869 869 870 870 870 870 870 869
840 841 842 843 844 846 847 848 849 850 851 853 855 856 857 858 859 860 860 861 861 861 862 863 863 864 865 865 866 866 867 868 868 869 869 869 869 869 869 869 869 869
839 840 841 843 844 845 846 847 849 850 851 853 855 857 858 859 860 861 861 861 861 861 861 862 863 863 864 864 865 866 866 867 868 868 868 868 869 869 869 869 869 869
838 839 840 842 843 844 845 846 848 850 852 854 856 858 858 859 860 861 861 861 861 861 861 861 862 862 863 864 864 865 866 866 867 867 868 868 868 868 869 869 869 868
836 838 839 841 841 843 844 845 848 850 852 854 856 857 857 858 858 859 859 860 860 860 860 860 861 862 862 863 864 864 865 865 866 866 867 867 868 868 868 868 868 868
835 836 838 839 840 841 843 845 847 849 850 852 853 854 855 855 856 856 856 857 858 859 859 859 860 860 861 862 862 863 864 864 864 865 865 866 867 867 867 867 867 867
833 835 836 837 838 839 841 844 846 847 847 849 851 852 853 853 854 854 855 855 856 857 858 859 859 859 859 860 861 862 862 863 863 864 864 865 866 866 866 865 865 865
832 834 834 836 837 838 840 842 844 844 845 847 848 850 851 851 852 852 853 854 855 856 857 857 857 858 858 859 860 861 861 862 862 863 863 864 864 864 863 863 864 864
830 832 833 834 836 837 839 841 842 842 843 845 846 847 849 849 849 851 852 853 854 854 855 855 856 857 857 858 858 859 860 861 861 862 862 863 862 862 862 863 863 863
829 831 832 833 835 836 838 839 840 841 842 843 844 845 846 847 848 849 850 851 852 853 853 853 854 855 856 856 857 857 858 859 860 860 860 860 860 860 861 861 861 861
828 830 831 832 834 835 837 837 838 839 840 842 843 844 845 846 846 847 848 849 850 851 851 852 852 853 854 855 855 856 857 857 858 859 859 859 859 859 859 859 859 860
828 830 830 832 832 834 835 836 836 838 839 840 841 842 843 844 845 846 847 848 849 849 850 850 851 852 853 853 854 854 855 856 856 857 857 858 858 858 858 858 858 858
828 829 830 831 832 833 834 834 835 836 837 838 839 840 841 842 843 844 845 846 847 848 849 849 850 851 851 852 853 853 854 854 855 855 856 856 856 856 857 857 857 857
826 827 828 829 830 831 832 833 834 835 836 837 837 838 840 840 842 843 844 845 845 846 847 848 849 849 850 851 851 852 853 853 853 854 854 855 855 855 855 855 855 855
822 824 826 827 828 829 831 832 833 834 834 835 836 837 838 839 840 841 842 843 844 845 846 846 847 848 849 849 850 850 851 851 852 852 853 853 853 853 854 854 854 854
819 821 823 825 826 827 828 829 831 832 833 834 835 836 836 837 838 839 840 841 841 843 844 845 846 847 847 848 848 849 850 850 850 851 851 851 851 852 852 852 853 853
818 820 824 826 826 826 826 828 830 831 833 835 834 835 836 836 836 837 838 839 840 841 842 844 844 845 846 846 847 848 848 848 849 849 849 849 850 850 851 851 852 852
817 819 822 824 825 824 824 826 827 829 833 836 838 836 835 835 835 835 836 837 839 840 842 843 844 844 845 845 846 846 847 847 848 847 847 848 848 849 849 850 851 851
816 818 820 822 824 824 824 825 826 827 829 835 840 841 838 835 834 835 836 837 838 840 841 842 843 844 844 845 845 846 846 847 847 847 847 847 847 848 848 849 849 850
815 818 820 823 826 827 825 824 825 826 827 830 837 842 842 839 835 835 836 837 838 840 841 842 843 843 844 844 845 845 846 846 847 847 847 847 847 847 848 848 848 848
815 817 819 821 824 825 824 824 826 827 828 829 832 837 841 841 837 835 836 837 838 840 840 842 842 843 843 844 844 845 845 845 846 846 847 847 846 846 846 847 847 847
816 818 819 820 822 822 823 824 825 827 828 829 831 834 837 838 837 836 837 838 839 840 841 842 842 843 843 843 844 844 844 845 845 845 846 847 848 847 846 846 846 846
Wind_Speed
24 24 23 21 20 19 18 18 17 16 15 13 13 12 11 10 8 7 7 7 8 8 6 6 5 6 8 7 7 7 8 7 4 3 4 3 3 1 1 2 2 3
23 23 23 22 22 20 18 18 18 17 17 16 14 13 13 12 10 8 8 8 10 9 7 7 7 8 9 8 7 8 9 8 6 5 5 5 5 4 2 3 2 3
22 22 23 23 23 22 20 19 18 17 18 18 16 14 14 14 12 10 10 10 11 10 9 8 8 9 9 9 8 8 8 8 7 7 7 6 5 5 4 4 3 3
23 22 22 22 22 22 21 20 19 18 19 19 17 16 15 15 15 13 12 12 12 12 12 11 10 10 10 10 11 10 8 8 8 8 8 7 6 6 6 6 5 5
24 22 22 22 22 22 23 22 21 20 20 20 18 17 16 17 17 16 14 15 14 14 14 14 13 12 11 11 12 12 10 9 9 9 9 8 8 7 7 8 7 6
25 22 22 22 22 23 23 22 22 22 21 21 19 17 16 17 19 18 16 16 15 15 16 15 14 13 11 11 13 13 11 10 10 9 9 10 9 8 8 8 8 6
26 23 22 22 22 23 23 23 22 22 22 22 21 19 16 16 18 18 17 17 15 15 16 15 13 12 11 11 13 14 12 10 10 11 10 10 9 9 8 8 8 8
26 24 23 22 22 22 22 22 21 20 20 21 19 16 13 12 13 15 16 16 16 16 16 15 14 12 12 12 12 13 13 12 11 12 12 10 9 10 9 8 9 9
25 25 23 23 23 22 22 21 20 18 17 16 14 13 14 13 13 15 15 15 16 17 16 16 16 14 13 13 13 13 13 13 12 12 13 12 11 10 10 9 10 10
25 25 25 24 24 23 23 21 19 19 17 16 16 17 18 18 17 19 19 17 17 19 18 17 17 16 15 15 14 14 13 12 11 11 12 13 13 11 9 10 11 10
25 25 25 25 25 24 23 21 19 20 19 19 19 19 18 18 17 18 19 18 18 19 20 17 16 16 16 16 15 15 14 13 12 12 12 12 12 11 10 10 12 12
25 25 25 25 25 24 23 20 20 21 21 20 19 19 18 18 17 17 18 18 18 19 19 18 16 15 16 16 16 16 16 15 14 14 14 12 12 13 13 12 12 13
26 25 25 25 25 25 23 20 20 22 22 20 20 19 19 19 19 18 17 18 19 19 19 18 18 17 17 17 17 18 17 17 15 14 14 13 13 14 14 12 11 13
27 25 25 25 25 25 23 21 21 21 21 21 21 20 20 20 19 18 17 17 18 18 18 18 18 18 17 16 16 17 17 17 15 14 14 13 13 13 13 12 12 13
27 25 24 24 25 25 24 23 22 20 19 20 20 20 20 19 18 18 17 17 18 19 18 18 18 17 15 15 15 16 16 16 16 15 13 11 11 12 13 12 13 13
28 26 24 24 25 25 24 24 23 20 19 20 20 20 20 19 18 17 17 17 18 19 19 18 18 17 15 15 15 15 16 17 17 16 14 11 11 12 12 11 12 11
24 26 25 25 26 26 25 25 23 22 20 19 19 20 20 20 18 17 17 17 18 18 18 18 18 18 16 15 16 16 17 17 17 16 15 14 13 12 12 11 10 9
21 23 24 24 25 26 25 24 23 22 21 20 20 21 21 21 20 18 18 17 17 17 17 18 19 18 16 16 16 17 18 18 17 17 16 16 14 14 13 13 11 9
22 23 25 24 24 23 23 23 23 22 22 21 21 22 23 22 20 19 19 18 17 17 17 18 18 17 17 17 17 17 18 19 18 18 17 17 16 15 15 13 12 11
23 23 23 23 22 22 21 20 20 20 22 23 23 23 24 24 22 20 19 19 19 19 19 19 18 18 17 17 17 17 18 18 18 18 18 18 16 16 15 13 12 11
22 19 18 18 18 20 20 18 16 15 15 18 22 24 24 23 22 21 20 19 20 20 20 19 18 18 18 17 17 16 16 16 16 16 17 17 16 15 14 13 12 11
20 19 20 21 20 20 19 18 17 15 11 9 13 19 22 22 21 20 19 19 18 18 17 16 16 16 15 14 14 13 12 13 13 13 15 16 16 16 14 13 12 11
18 19 21 20 17 17 18 18 18 19 17 12 9 10 15 19 19 17 16 16 15 14 12 12 12 11 11 11 10 10 10 10 11 12 14 15 15 14 13 12 11 10
17 17 16 13 13 15 17 18 19 20 21 20 15 11 11 14 16 16 14 13 12 10 8 8 8 8 9 9 9 9 9 9 10 11 13 14 14 13 11 10 9 9
16 16 15 15 17 18 18 18 20 20 20 19 18 17 15 13 14 14 13 11 9 8 6 6 6 6 7 8 8 9 9 9 10 11 12 12 11 12 13 11 10 9
15 14 14 16 18 19 18 19 19 18 18 18 18 18 16 13 12 13 12 11 9 7 6 4 3 3 3 4 5 7 8 9 10 11 11 8 6 8 10 9 8 8
Wind_Direction
206 208 210 211 213 220 226 226 226 229 229 225 225 228 232 237 240 244 246 231 215 217 233 240 246 258 260 261 261 260 260 258 252 250 252 256 263 287 359 356 356 355
208 209 212 214 215 220 227 226 225 227 227 226 228 230 231 233 234 237 240 227 215 219 233 243 247 251 254 257 257 255 256 257 258 268 274 269 262 266 300 324 328 332
210 212 214 216 217 221 226 226 225 228 227 227 229 230 229 226 226 230 233 224 218 222 231 240 243 244 248 252 251 250 255 258 263 272 277 277 268 263 273 295 308 314
210 215 218 218 220 223 225 225 226 228 227 228 230 232 231 227 227 230 230 225 224 227 232 235 238 242 247 249 249 250 254 257 260 266 270 272 273 271 274 281 290 298
213 218 220 221 224 225 224 224 225 226 227 228 229 233 235 231 229 232 230 227 232 235 235 235 237 242 247 247 245 246 250 253 256 259 262 266 271 273 275 278 282 289
215 219 220 222 225 224 223 224 225 227 229 229 229 233 238 233 230 232 231 231 238 238 233 233 237 241 245 243 238 239 243 247 251 252 254 262 266 267 273 279 280 282
215 219 220 222 224 224 224 226 227 230 232 233 232 234 239 237 233 234 235 237 239 234 228 230 236 239 242 238 231 233 238 242 247 249 252 260 265 266 270 277 278 278
215 218 220 222 223 223 225 226 228 231 233 233 233 236 241 244 245 243 245 244 237 230 228 230 236 240 239 237 232 232 237 242 247 250 252 260 269 269 269 276 281 279
214 217 219 221 222 223 225 226 229 231 232 230 233 241 243 242 245 244 242 242 237 233 233 233 239 241 238 237 236 235 238 242 247 250 252 257 268 274 276 281 283 280
216 217 218 220 222 224 225 227 230 230 230 232 237 243 242 239 239 236 231 230 233 236 238 238 240 241 237 238 239 238 237 238 240 244 249 254 260 270 281 283 278 274
216 218 218 220 221 221 222 225 228 229 229 233 237 240 241 240 239 237 232 226 226 234 239 241 242 239 237 237 239 239 238 239 242 245 249 252 253 259 269 274 272 270
216 218 219 221 221 218 218 222 225 227 229 230 232 234 236 237 236 237 235 228 224 229 235 239 240 238 237 239 241 243 243 245 250 253 254 253 249 250 255 260 266 271
215 219 221 223 223 220 219 224 227 228 230 230 231 232 233 235 235 235 234 230 227 227 230 237 240 241 244 245 245 247 248 249 252 257 260 255 250 253 256 257 263 270
214 218 222 224 224 222 221 225 229 230 231 231 229 230 234 235 233 232 231 230 229 230 232 235 239 243 247 247 245 244 247 249 253 260 264 259 255 259 261 263 267 272
215 216 220 224 224 223 222 225 230 231 230 229 228 230 234 233 230 232 232 229 228 232 235 236 238 241 243 243 242 239 242 247 251 259 262 260 261 261 262 267 270 272
218 219 222 224 223 222 223 225 229 231 230 230 230 230 232 230 229 231 232 230 228 230 234 235 234 237 238 239 239 237 241 245 249 256 257 255 259 259 261 269 271 269
220 223 225 226 226 225 226 226 228 230 231 231 231 230 231 230 229 228 228 230 230 230 233 234 233 236 238 240 239 238 242 245 248 254 256 256 257 258 264 272 268 256
220 224 224 224 225 227 228 228 228 228 228 229 229 229 228 227 226 227 229 233 231 228 232 235 235 238 240 241 242 242 242 245 248 251 255 258 256 254 261 266 254 236
216 221 219 218 218 220 223 224 225 225 225 226 226 223 221 220 222 225 228 232 232 228 230 234 236 239 241 241 244 245 244 247 249 250 253 257 257 255 258 255 239 228
207 212 209 208 208 207 207 209 212 217 220 220 219 216 214 213 215 220 222 225 228 228 229 231 232 234 237 237 240 244 247 250 251 252 252 253 255 254 250 242 232 231
199 197 194 195 197 195 194 192 192 198 207 211 211 209 209 209 210 213 216 216 219 222 222 224 226 229 232 235 239 243 247 250 250 249 247 245 243 241 236 229 227 228
195 195 196 198 195 189 186 184 183 185 189 203 208 201 199 202 203 204 205 205 206 209 212 215 220 225 229 233 237 241 245 248 248 244 238 232 228 227 224 222 223 224
196 199 195 191 190 187 185 184 187 189 188 193 205 199 190 189 188 186 186 186 186 189 197 205 213 221 228 233 237 242 245 248 249 244 235 227 222 221 220 218 218 219
201 199 189 183 193 196 191 190 192 192 190 190 195 208 204 186 174 168 165 167 172 176 185 201 214 225 234 239 244 247 247 246 248 244 233 224 216 207 200 198 197 200
198 194 190 195 200 196 189 189 190 190 191 190 193 206 210 190 168 162 159 157 165 175 185 205 225 237 245 249 248 249 250 248 243 234 224 216 200 180 178 186 188 189
185 181 180 184 188 186 182 184 185 183 182 180 180 189 192 179 165 163 156 145 146 152 152 159 184 211 233 246 244 242 245 244 240 233 223 214 182 154 162 173 171 168